Date_Time,Julian_Date,Latitude,Longitude,Instrument_Depth,U,V,Speed,Direction
(yyyy-mm-dd hh:mn:ss UTC),(JD),(+ deg. North),(+ deg. East),(m),(cm/s),(cm/s),(cm/s),(deg True)
1981-09-29 22:30:00 UTC,2444877.437500,29.6417,-93.6667,0037,-8.63,-8.34,12.0000,226.0000
1981-09-29 23:00:00 UTC,2444877.458333,29.6417,-93.6667,0037,-6.14,-6.58,9.0000,223.0000
1981-09-29 23:30:00 UTC,2444877.479167,29.6417,-93.6667,0037,-2.54,-5.44,6.0000,205.0000
1981-09-30 00:00:00 UTC,2444877.500000,29.6417,-93.6667,0037,-0.35,-4.99,5.0000,184.0000
1981-09-30 00:30:00 UTC,2444877.520833,29.6417,-93.6667,0037,0.61,-4.96,5.0000,173.0000
1981-09-30 01:00:00 UTC,2444877.541667,29.6417,-93.6667,0037,1.79,-4.67,5.0000,159.0000
1981-09-30 01:30:00 UTC,2444877.562500,29.6417,-93.6667,0037,2.72,-4.19,5.0000,147.0000
1981-09-30 02:00:00 UTC,2444877.583333,29.6417,-93.6667,0037,3.15,-3.89,5.0000,141.0000
1981-09-30 02:30:00 UTC,2444877.604167,29.6417,-93.6667,0037,3.28,-3.77,5.0000,139.0000
1981-09-30 03:00:00 UTC,2444877.625000,29.6417,-93.6667,0037,3.39,-2.12,4.0000,122.0000
1981-09-30 03:30:00 UTC,2444877.645833,29.6417,-93.6667,0037,4.98,0.44,5.0000,85.0000
1981-09-30 04:00:00 UTC,2444877.666667,29.6417,-93.6667,0037,6.34,2.96,7.0000,65.0000
1981-09-30 04:30:00 UTC,2444877.687500,29.6417,-93.6667,0037,6.93,4.00,8.0000,60.0000
1981-09-30 05:00:00 UTC,2444877.708333,29.6417,-93.6667,0037,8.02,4.09,9.0000,63.0000
1981-09-30 05:30:00 UTC,2444877.729167,29.6417,-93.6667,0037,8.51,2.93,9.0000,71.0000
1981-09-30 06:00:00 UTC,2444877.750000,29.6417,-93.6667,0037,7.31,3.25,8.0000,66.0000
1981-09-30 06:30:00 UTC,2444877.770833,29.6417,-93.6667,0037,4.59,5.28,7.0000,41.0000
1981-09-30 07:00:00 UTC,2444877.791667,29.6417,-93.6667,0037,3.88,7.00,8.0000,29.0000
1981-09-30 07:30:00 UTC,2444877.812500,29.6417,-93.6667,0037,5.03,7.46,9.0000,34.0000
1981-09-30 08:00:00 UTC,2444877.833333,29.6417,-93.6667,0037,7.07,7.07,10.0000,45.0000
1981-09-30 08:30:00 UTC,2444877.854167,29.6417,-93.6667,0037,9.01,6.31,11.0000,55.0000
1981-09-30 09:00:00 UTC,2444877.875000,29.6417,-93.6667,0037,9.71,5.16,11.0000,62.0000
1981-09-30 09:30:00 UTC,2444877.895833,29.6417,-93.6667,0037,9.89,4.82,11.0000,64.0000
1981-09-30 10:00:00 UTC,2444877.916667,29.6417,-93.6667,0037,10.34,3.76,11.0000,70.0000
1981-09-30 10:30:00 UTC,2444877.937500,29.6417,-93.6667,0037,10.86,1.72,11.0000,81.0000
1981-09-30 11:00:00 UTC,2444877.958333,29.6417,-93.6667,0037,11.00,-0.19,11.0000,91.0000
1981-09-30 11:30:00 UTC,2444877.979167,29.6417,-93.6667,0037,11.97,-0.84,12.0000,94.0000
1981-09-30 12:00:00 UTC,2444878.000000,29.6417,-93.6667,0037,12.87,-1.81,13.0000,98.0000
1981-09-30 12:30:00 UTC,2444878.020833,29.6417,-93.6667,0037,13.39,-4.09,14.0000,107.0000
1981-09-30 13:00:00 UTC,2444878.041667,29.6417,-93.6667,0037,12.89,-5.47,14.0000,113.0000
1981-09-30 13:30:00 UTC,2444878.062500,29.6417,-93.6667,0037,12.79,-5.69,14.0000,114.0000
1981-09-30 14:00:00 UTC,2444878.083333,29.6417,-93.6667,0037,12.14,-4.66,13.0000,111.0000
1981-09-30 14:30:00 UTC,2444878.104167,29.6417,-93.6667,0037,12.29,-4.23,13.0000,109.0000
1981-09-30 15:00:00 UTC,2444878.125000,29.6417,-93.6667,0037,12.22,-4.45,13.0000,110.0000
1981-09-30 15:30:00 UTC,2444878.145833,29.6417,-93.6667,0037,11.78,-5.49,13.0000,115.0000
1981-09-30 16:00:00 UTC,2444878.166667,29.6417,-93.6667,0037,10.60,-5.63,12.0000,118.0000
1981-09-30 16:30:00 UTC,2444878.187500,29.6417,-93.6667,0037,9.14,-4.07,10.0000,114.0000
1981-09-30 17:00:00 UTC,2444878.208333,29.6417,-93.6667,0037,8.69,-2.33,9.0000,105.0000
1981-09-30 17:30:00 UTC,2444878.229167,29.6417,-93.6667,0037,8.91,-1.25,9.0000,98.0000
1981-09-30 18:00:00 UTC,2444878.250000,29.6417,-93.6667,0037,8.97,-0.78,9.0000,95.0000
1981-09-30 18:30:00 UTC,2444878.270833,29.6417,-93.6667,0037,7.94,-0.97,8.0000,97.0000
1981-09-30 19:00:00 UTC,2444878.291667,29.6417,-93.6667,0037,2.99,0.26,3.0000,85.0000
1981-09-30 19:30:00 UTC,2444878.312500,29.6417,-93.6667,0037,-6.00,3.61,7.0000,301.0000
1981-09-30 20:00:00 UTC,2444878.333333,29.6417,-93.6667,0037,-15.04,5.47,16.0000,290.0000
1981-09-30 20:30:00 UTC,2444878.354167,29.6417,-93.6667,0037,-22.50,4.78,23.0000,282.0000
1981-09-30 21:00:00 UTC,2444878.375000,29.6417,-93.6667,0037,-24.69,3.91,25.0000,279.0000
1981-09-30 21:30:00 UTC,2444878.395833,29.6417,-93.6667,0037,-23.48,4.99,24.0000,282.0000
1981-09-30 22:00:00 UTC,2444878.416667,29.6417,-93.6667,0037,-21.61,7.87,23.0000,290.0000
1981-09-30 22:30:00 UTC,2444878.437500,29.6417,-93.6667,0037,-20.67,10.08,23.0000,296.0000
1981-09-30 23:00:00 UTC,2444878.458333,29.6417,-93.6667,0037,-19.03,8.87,21.0000,295.0000
1981-09-30 23:30:00 UTC,2444878.479167,29.6417,-93.6667,0037,-15.53,6.91,17.0000,294.0000
1981-10-01 00:00:00 UTC,2444878.500000,29.6417,-93.6667,0037,-9.80,4.99,11.0000,297.0000
1981-10-01 00:30:00 UTC,2444878.520833,29.6417,-93.6667,0037,-4.97,3.36,6.0000,304.0000
1981-10-01 01:00:00 UTC,2444878.541667,29.6417,-93.6667,0037,-2.67,1.36,3.0000,297.0000
1981-10-01 01:30:00 UTC,2444878.562500,29.6417,-93.6667,0037,-3.00,-0.00,3.0000,270.0000
1981-10-01 02:00:00 UTC,2444878.583333,29.6417,-93.6667,0037,-2.90,-0.78,3.0000,255.0000
1981-10-01 02:30:00 UTC,2444878.604167,29.6417,-93.6667,0037,-4.60,-1.95,5.0000,247.0000
1981-10-01 03:00:00 UTC,2444878.625000,29.6417,-93.6667,0037,-8.77,-2.02,9.0000,257.0000
1981-10-01 03:30:00 UTC,2444878.645833,29.6417,-93.6667,0037,-14.99,0.52,15.0000,272.0000
1981-10-01 04:00:00 UTC,2444878.666667,29.6417,-93.6667,0037,-18.35,4.92,19.0000,285.0000
1981-10-01 04:30:00 UTC,2444878.687500,29.6417,-93.6667,0037,-19.47,7.87,21.0000,292.0000
1981-10-01 05:00:00 UTC,2444878.708333,29.6417,-93.6667,0037,-17.49,7.42,19.0000,293.0000
1981-10-01 05:30:00 UTC,2444878.729167,29.6417,-93.6667,0037,-15.04,5.47,16.0000,290.0000
1981-10-01 06:00:00 UTC,2444878.750000,29.6417,-93.6667,0037,-12.22,4.45,13.0000,290.0000
1981-10-01 06:30:00 UTC,2444878.770833,29.6417,-93.6667,0037,-10.67,2.66,11.0000,284.0000
1981-10-01 07:00:00 UTC,2444878.791667,29.6417,-93.6667,0037,-10.97,-0.77,11.0000,266.0000
1981-10-01 07:30:00 UTC,2444878.812500,29.6417,-93.6667,0037,-13.39,-4.09,14.0000,253.0000
1981-10-01 08:00:00 UTC,2444878.833333,29.6417,-93.6667,0037,-16.26,-4.97,17.0000,253.0000
1981-10-01 08:30:00 UTC,2444878.854167,29.6417,-93.6667,0037,-16.63,-3.53,17.0000,258.0000
1981-10-01 09:00:00 UTC,2444878.875000,29.6417,-93.6667,0037,-15.91,-1.67,16.0000,264.0000
1981-10-01 09:30:00 UTC,2444878.895833,29.6417,-93.6667,0037,-15.84,-2.23,16.0000,262.0000
1981-10-01 10:00:00 UTC,2444878.916667,29.6417,-93.6667,0037,-16.69,-3.24,17.0000,259.0000
1981-10-01 10:30:00 UTC,2444878.937500,29.6417,-93.6667,0037,-16.63,-3.53,17.0000,258.0000
1981-10-01 11:00:00 UTC,2444878.958333,29.6417,-93.6667,0037,-15.52,-3.87,16.0000,256.0000
1981-10-01 11:30:00 UTC,2444878.979167,29.6417,-93.6667,0037,-15.59,-3.60,16.0000,257.0000
1981-10-01 12:00:00 UTC,2444879.000000,29.6417,-93.6667,0037,-16.79,-2.66,17.0000,261.0000
1981-10-01 12:30:00 UTC,2444879.020833,29.6417,-93.6667,0037,-16.83,-2.37,17.0000,262.0000
1981-10-01 13:00:00 UTC,2444879.041667,29.6417,-93.6667,0037,-17.78,-2.82,18.0000,261.0000
1981-10-01 13:30:00 UTC,2444879.062500,29.6417,-93.6667,0037,-17.82,-2.51,18.0000,262.0000
1981-10-01 14:00:00 UTC,2444879.083333,29.6417,-93.6667,0037,-17.98,-0.94,18.0000,267.0000
1981-10-01 14:30:00 UTC,2444879.104167,29.6417,-93.6667,0037,-18.00,-0.00,18.0000,270.0000
1981-10-01 15:00:00 UTC,2444879.125000,29.6417,-93.6667,0037,-19.00,-0.33,19.0000,269.0000
1981-10-01 15:30:00 UTC,2444879.145833,29.6417,-93.6667,0037,-19.00,-0.33,19.0000,269.0000
1981-10-01 16:00:00 UTC,2444879.166667,29.6417,-93.6667,0037,-17.99,0.63,18.0000,272.0000
1981-10-01 16:30:00 UTC,2444879.187500,29.6417,-93.6667,0037,-16.69,3.24,17.0000,281.0000
1981-10-01 17:00:00 UTC,2444879.208333,29.6417,-93.6667,0037,-16.07,5.53,17.0000,289.0000
1981-10-01 17:30:00 UTC,2444879.229167,29.6417,-93.6667,0037,-14.94,5.73,16.0000,291.0000
1981-10-01 18:00:00 UTC,2444879.250000,29.6417,-93.6667,0037,-13.07,5.02,14.0000,291.0000
1981-10-01 18:30:00 UTC,2444879.270833,29.6417,-93.6667,0037,-11.05,4.69,12.0000,293.0000
1981-10-01 19:00:00 UTC,2444879.291667,29.6417,-93.6667,0037,-9.01,6.31,11.0000,305.0000
1981-10-01 19:30:00 UTC,2444879.312500,29.6417,-93.6667,0037,-9.66,8.70,13.0000,312.0000
1981-10-01 20:00:00 UTC,2444879.333333,29.6417,-93.6667,0037,-10.07,9.73,14.0000,314.0000
1981-10-01 20:30:00 UTC,2444879.354167,29.6417,-93.6667,0037,-8.53,9.81,13.0000,319.0000
1981-10-01 21:00:00 UTC,2444879.375000,29.6417,-93.6667,0037,-7.05,9.71,12.0000,324.0000
1981-10-01 21:30:00 UTC,2444879.395833,29.6417,-93.6667,0037,-5.99,9.23,11.0000,327.0000
1981-10-01 22:00:00 UTC,2444879.416667,29.6417,-93.6667,0037,-3.66,8.22,9.0000,336.0000
1981-10-01 22:30:00 UTC,2444879.437500,29.6417,-93.6667,0037,-0.52,5.98,6.0000,355.0000
1981-10-01 23:00:00 UTC,2444879.458333,29.6417,-93.6667,0037,2.19,4.49,5.0000,26.0000
1981-10-01 23:30:00 UTC,2444879.479167,29.6417,-93.6667,0037,4.97,3.36,6.0000,56.0000
1981-10-02 00:00:00 UTC,2444879.500000,29.6417,-93.6667,0037,8.51,2.93,9.0000,71.0000
1981-10-02 00:30:00 UTC,2444879.520833,29.6417,-93.6667,0037,9.95,1.05,10.0000,84.0000
1981-10-02 01:00:00 UTC,2444879.541667,29.6417,-93.6667,0037,10.96,-0.96,11.0000,95.0000
1981-10-02 01:30:00 UTC,2444879.562500,29.6417,-93.6667,0037,10.67,-2.66,11.0000,104.0000
1981-10-02 02:00:00 UTC,2444879.583333,29.6417,-93.6667,0037,9.21,-3.91,10.0000,113.0000
1981-10-02 02:30:00 UTC,2444879.604167,29.6417,-93.6667,0037,8.66,-5.00,10.0000,120.0000
1981-10-02 03:00:00 UTC,2444879.625000,29.6417,-93.6667,0037,8.29,-5.59,10.0000,124.0000
1981-10-02 03:30:00 UTC,2444879.645833,29.6417,-93.6667,0037,6.99,-5.66,9.0000,129.0000
1981-10-02 04:00:00 UTC,2444879.666667,29.6417,-93.6667,0037,6.79,-5.90,9.0000,131.0000
1981-10-02 04:30:00 UTC,2444879.687500,29.6417,-93.6667,0037,6.69,-6.02,9.0000,132.0000
1981-10-02 05:00:00 UTC,2444879.708333,29.6417,-93.6667,0037,6.25,-6.47,9.0000,136.0000
1981-10-02 05:30:00 UTC,2444879.729167,29.6417,-93.6667,0037,6.14,-6.58,9.0000,137.0000
1981-10-02 06:00:00 UTC,2444879.750000,29.6417,-93.6667,0037,6.79,-5.90,9.0000,131.0000
1981-10-02 06:30:00 UTC,2444879.770833,29.6417,-93.6667,0037,6.89,-5.79,9.0000,130.0000
1981-10-02 07:00:00 UTC,2444879.791667,29.6417,-93.6667,0037,6.25,-6.47,9.0000,136.0000
1981-10-02 07:30:00 UTC,2444879.812500,29.6417,-93.6667,0037,5.90,-6.79,9.0000,139.0000
1981-10-02 08:00:00 UTC,2444879.833333,29.6417,-93.6667,0037,5.46,-5.85,8.0000,137.0000
1981-10-02 08:30:00 UTC,2444879.854167,29.6417,-93.6667,0037,4.59,-5.28,7.0000,139.0000
1981-10-02 09:00:00 UTC,2444879.875000,29.6417,-93.6667,0037,4.12,-6.86,8.0000,149.0000
1981-10-02 09:30:00 UTC,2444879.895833,29.6417,-93.6667,0037,3.13,-7.36,8.0000,157.0000
1981-10-02 10:00:00 UTC,2444879.916667,29.6417,-93.6667,0037,2.74,-7.52,8.0000,160.0000
1981-10-02 10:30:00 UTC,2444879.937500,29.6417,-93.6667,0037,2.74,-7.52,8.0000,160.0000
1981-10-02 11:00:00 UTC,2444879.958333,29.6417,-93.6667,0037,3.13,-7.36,8.0000,157.0000
1981-10-02 11:30:00 UTC,2444879.979167,29.6417,-93.6667,0037,4.36,-6.71,8.0000,147.0000
1981-10-02 12:00:00 UTC,2444880.000000,29.6417,-93.6667,0037,5.35,-5.95,8.0000,138.0000
1981-10-02 12:30:00 UTC,2444880.020833,29.6417,-93.6667,0037,5.66,-5.66,8.0000,135.0000
1981-10-02 13:00:00 UTC,2444880.041667,29.6417,-93.6667,0037,5.14,-6.13,8.0000,140.0000
1981-10-02 13:30:00 UTC,2444880.062500,29.6417,-93.6667,0037,4.47,-6.63,8.0000,146.0000
1981-10-02 14:00:00 UTC,2444880.083333,29.6417,-93.6667,0037,3.18,-6.24,7.0000,153.0000
1981-10-02 14:30:00 UTC,2444880.104167,29.6417,-93.6667,0037,1.22,-6.89,7.0000,170.0000
1981-10-02 15:00:00 UTC,2444880.125000,29.6417,-93.6667,0037,-0.73,-5.96,6.0000,187.0000
1981-10-02 15:30:00 UTC,2444880.145833,29.6417,-93.6667,0037,-0.56,-3.96,4.0000,188.0000
1981-10-02 16:00:00 UTC,2444880.166667,29.6417,-93.6667,0037,1.00,-1.73,2.0000,150.0000
1981-10-02 16:30:00 UTC,2444880.187500,29.6417,-93.6667,0037,2.62,-1.45,3.0000,119.0000
1981-10-02 17:00:00 UTC,2444880.208333,29.6417,-93.6667,0037,4.67,-1.79,5.0000,111.0000
1981-10-02 17:30:00 UTC,2444880.229167,29.6417,-93.6667,0037,7.52,-2.74,8.0000,110.0000
1981-10-02 18:00:00 UTC,2444880.250000,29.6417,-93.6667,0037,9.14,-4.07,10.0000,114.0000
1981-10-02 18:30:00 UTC,2444880.270833,29.6417,-93.6667,0037,8.99,-4.38,10.0000,116.0000
1981-10-02 19:00:00 UTC,2444880.291667,29.6417,-93.6667,0037,8.99,-4.38,10.0000,116.0000
1981-10-02 19:30:00 UTC,2444880.312500,29.6417,-93.6667,0037,9.43,-5.67,11.0000,121.0000
1981-10-02 20:00:00 UTC,2444880.333333,29.6417,-93.6667,0037,9.95,-6.71,12.0000,124.0000
1981-10-02 20:30:00 UTC,2444880.354167,29.6417,-93.6667,0037,11.87,-7.42,14.0000,122.0000
1981-10-02 21:00:00 UTC,2444880.375000,29.6417,-93.6667,0037,12.12,-7.00,14.0000,120.0000
1981-10-02 21:30:00 UTC,2444880.395833,29.6417,-93.6667,0037,11.87,-7.42,14.0000,122.0000
1981-10-02 22:00:00 UTC,2444880.416667,29.6417,-93.6667,0037,9.81,-8.53,13.0000,131.0000
1981-10-02 22:30:00 UTC,2444880.437500,29.6417,-93.6667,0037,8.81,-10.88,14.0000,141.0000
1981-10-02 23:00:00 UTC,2444880.458333,29.6417,-93.6667,0037,7.76,-13.99,16.0000,151.0000
1981-10-02 23:30:00 UTC,2444880.479167,29.6417,-93.6667,0037,6.16,-16.91,18.0000,160.0000
1981-10-03 00:00:00 UTC,2444880.500000,29.6417,-93.6667,0037,3.82,-19.63,20.0000,169.0000
1981-10-03 00:30:00 UTC,2444880.520833,29.6417,-93.6667,0037,0.37,-21.00,21.0000,179.0000
1981-10-03 01:00:00 UTC,2444880.541667,29.6417,-93.6667,0037,-3.06,-21.79,22.0000,188.0000
1981-10-03 01:30:00 UTC,2444880.562500,29.6417,-93.6667,0037,-5.17,-22.41,23.0000,193.0000
1981-10-03 02:00:00 UTC,2444880.583333,29.6417,-93.6667,0037,-5.56,-22.32,23.0000,194.0000
1981-10-03 02:30:00 UTC,2444880.604167,29.6417,-93.6667,0037,-6.14,-20.08,21.0000,197.0000
1981-10-03 03:00:00 UTC,2444880.625000,29.6417,-93.6667,0037,-7.12,-17.62,19.0000,202.0000
1981-10-03 03:30:00 UTC,2444880.645833,29.6417,-93.6667,0037,-7.98,-15.01,17.0000,208.0000
1981-10-03 04:00:00 UTC,2444880.666667,29.6417,-93.6667,0037,-8.48,-13.57,16.0000,212.0000
1981-10-03 04:30:00 UTC,2444880.687500,29.6417,-93.6667,0037,-7.00,-12.12,14.0000,210.0000
1981-10-03 05:00:00 UTC,2444880.708333,29.6417,-93.6667,0037,-5.29,-11.88,13.0000,204.0000
1981-10-03 05:30:00 UTC,2444880.729167,29.6417,-93.6667,0037,-5.08,-11.97,13.0000,203.0000
1981-10-03 06:00:00 UTC,2444880.750000,29.6417,-93.6667,0037,-5.29,-11.88,13.0000,204.0000
1981-10-03 06:30:00 UTC,2444880.770833,29.6417,-93.6667,0037,-4.30,-11.20,12.0000,201.0000
1981-10-03 07:00:00 UTC,2444880.791667,29.6417,-93.6667,0037,-3.58,-9.34,10.0000,201.0000
1981-10-03 07:30:00 UTC,2444880.812500,29.6417,-93.6667,0037,-6.02,-7.99,10.0000,217.0000
1981-10-03 08:00:00 UTC,2444880.833333,29.6417,-93.6667,0037,-10.39,-6.00,12.0000,240.0000
1981-10-03 08:30:00 UTC,2444880.854167,29.6417,-93.6667,0037,-13.79,-2.43,14.0000,260.0000
1981-10-03 09:00:00 UTC,2444880.875000,29.6417,-93.6667,0037,-16.00,-0.28,16.0000,269.0000
1981-10-03 09:30:00 UTC,2444880.895833,29.6417,-93.6667,0037,-17.98,-0.94,18.0000,267.0000
1981-10-03 10:00:00 UTC,2444880.916667,29.6417,-93.6667,0037,-22.78,-3.20,23.0000,262.0000
1981-10-03 10:30:00 UTC,2444880.937500,29.6417,-93.6667,0037,-26.67,-4.22,27.0000,261.0000
1981-10-03 11:00:00 UTC,2444880.958333,29.6417,-93.6667,0037,-28.64,-4.54,29.0000,261.0000
1981-10-03 11:30:00 UTC,2444880.979167,29.6417,-93.6667,0037,-30.43,-5.92,31.0000,259.0000
1981-10-03 12:00:00 UTC,2444881.000000,29.6417,-93.6667,0037,-33.13,-7.65,34.0000,257.0000
1981-10-03 12:30:00 UTC,2444881.020833,29.6417,-93.6667,0037,-34.77,-9.32,36.0000,255.0000
1981-10-03 13:00:00 UTC,2444881.041667,29.6417,-93.6667,0037,-35.90,-8.95,37.0000,256.0000
1981-10-03 13:30:00 UTC,2444881.062500,29.6417,-93.6667,0037,-36.32,-7.06,37.0000,259.0000
1981-10-03 14:00:00 UTC,2444881.083333,29.6417,-93.6667,0037,-35.65,-5.01,36.0000,262.0000
1981-10-03 14:30:00 UTC,2444881.104167,29.6417,-93.6667,0037,-34.81,-3.66,35.0000,264.0000
1981-10-03 15:00:00 UTC,2444881.125000,29.6417,-93.6667,0037,-30.88,-2.70,31.0000,265.0000
1981-10-03 15:30:00 UTC,2444881.145833,29.6417,-93.6667,0037,-25.96,-1.36,26.0000,267.0000
1981-10-03 16:00:00 UTC,2444881.166667,29.6417,-93.6667,0037,-23.00,-0.40,23.0000,269.0000
1981-10-03 16:30:00 UTC,2444881.187500,29.6417,-93.6667,0037,-22.00,-0.38,22.0000,269.0000
1981-10-03 17:00:00 UTC,2444881.208333,29.6417,-93.6667,0037,-19.00,-0.33,19.0000,269.0000
1981-10-03 17:30:00 UTC,2444881.229167,29.6417,-93.6667,0037,-13.00,0.23,13.0000,271.0000
1981-10-03 18:00:00 UTC,2444881.250000,29.6417,-93.6667,0037,-9.99,-0.52,10.0000,267.0000
1981-10-03 18:30:00 UTC,2444881.270833,29.6417,-93.6667,0037,-8.86,-1.56,9.0000,260.0000
1981-10-03 19:00:00 UTC,2444881.291667,29.6417,-93.6667,0037,-6.87,-1.34,7.0000,259.0000
1981-10-03 19:30:00 UTC,2444881.312500,29.6417,-93.6667,0037,-5.94,-0.84,6.0000,262.0000
1981-10-03 20:00:00 UTC,2444881.333333,29.6417,-93.6667,0037,-12.90,-1.58,13.0000,263.0000
1981-10-03 20:30:00 UTC,2444881.354167,29.6417,-93.6667,0037,-20.88,-2.20,21.0000,264.0000
1981-10-03 21:00:00 UTC,2444881.375000,29.6417,-93.6667,0037,-19.81,-2.78,20.0000,262.0000
1981-10-03 21:30:00 UTC,2444881.395833,29.6417,-93.6667,0037,-18.71,-3.30,19.0000,260.0000
1981-10-03 22:00:00 UTC,2444881.416667,29.6417,-93.6667,0037,-19.81,-2.78,20.0000,262.0000
1981-10-03 22:30:00 UTC,2444881.437500,29.6417,-93.6667,0037,-22.94,-1.60,23.0000,266.0000
1981-10-03 23:00:00 UTC,2444881.458333,29.6417,-93.6667,0037,-24.94,-1.74,25.0000,266.0000
1981-10-03 23:30:00 UTC,2444881.479167,29.6417,-93.6667,0037,-23.94,-1.67,24.0000,266.0000
1981-10-04 00:00:00 UTC,2444881.500000,29.6417,-93.6667,0037,-21.95,-1.53,22.0000,266.0000
1981-10-04 00:30:00 UTC,2444881.520833,29.6417,-93.6667,0037,-19.89,-2.09,20.0000,264.0000
1981-10-04 01:00:00 UTC,2444881.541667,29.6417,-93.6667,0037,-21.99,0.77,22.0000,272.0000
1981-10-04 01:30:00 UTC,2444881.562500,29.6417,-93.6667,0037,-24.86,7.60,26.0000,287.0000
1981-10-04 02:00:00 UTC,2444881.583333,29.6417,-93.6667,0037,-24.85,10.55,27.0000,293.0000
1981-10-04 02:30:00 UTC,2444881.604167,29.6417,-93.6667,0037,-18.91,6.51,20.0000,289.0000
1981-10-04 03:00:00 UTC,2444881.625000,29.6417,-93.6667,0037,-11.74,2.49,12.0000,282.0000
1981-10-04 03:30:00 UTC,2444881.645833,29.6417,-93.6667,0037,-4.97,0.52,5.0000,276.0000
1981-10-04 04:00:00 UTC,2444881.666667,29.6417,-93.6667,0037,0.77,-0.64,1.0000,130.0000
1981-10-04 04:30:00 UTC,2444881.687500,29.6417,-93.6667,0037,4.60,-1.95,5.0000,113.0000
1981-10-04 05:00:00 UTC,2444881.708333,29.6417,-93.6667,0037,6.39,-2.85,7.0000,114.0000
1981-10-04 05:30:00 UTC,2444881.729167,29.6417,-93.6667,0037,6.71,-4.36,8.0000,123.0000
1981-10-04 06:00:00 UTC,2444881.750000,29.6417,-93.6667,0037,6.02,-6.69,9.0000,138.0000
1981-10-04 06:30:00 UTC,2444881.770833,29.6417,-93.6667,0037,6.47,-8.90,11.0000,144.0000
1981-10-04 07:00:00 UTC,2444881.791667,29.6417,-93.6667,0037,6.31,-9.01,11.0000,145.0000
1981-10-04 07:30:00 UTC,2444881.812500,29.6417,-93.6667,0037,4.38,-8.99,10.0000,154.0000
1981-10-04 08:00:00 UTC,2444881.833333,29.6417,-93.6667,0037,4.09,-8.02,9.0000,153.0000
1981-10-04 08:30:00 UTC,2444881.854167,29.6417,-93.6667,0037,6.13,-5.14,8.0000,130.0000
1981-10-04 09:00:00 UTC,2444881.875000,29.6417,-93.6667,0037,8.00,0.00,8.0000,90.0000
1981-10-04 09:30:00 UTC,2444881.895833,29.6417,-93.6667,0037,11.20,4.30,12.0000,69.0000
1981-10-04 10:00:00 UTC,2444881.916667,29.6417,-93.6667,0037,12.69,5.92,14.0000,65.0000
1981-10-04 10:30:00 UTC,2444881.937500,29.6417,-93.6667,0037,13.81,5.86,15.0000,67.0000
1981-10-04 11:00:00 UTC,2444881.958333,29.6417,-93.6667,0037,14.27,4.64,15.0000,72.0000
1981-10-04 11:30:00 UTC,2444881.979167,29.6417,-93.6667,0037,14.49,3.88,15.0000,75.0000
1981-10-04 12:00:00 UTC,2444882.000000,29.6417,-93.6667,0037,14.49,3.88,15.0000,75.0000
1981-10-04 12:30:00 UTC,2444882.020833,29.6417,-93.6667,0037,14.62,3.37,15.0000,77.0000
1981-10-04 13:00:00 UTC,2444882.041667,29.6417,-93.6667,0037,13.79,2.43,14.0000,80.0000
1981-10-04 13:30:00 UTC,2444882.062500,29.6417,-93.6667,0037,13.83,2.19,14.0000,81.0000
1981-10-04 14:00:00 UTC,2444882.083333,29.6417,-93.6667,0037,14.77,2.60,15.0000,80.0000
1981-10-04 14:30:00 UTC,2444882.104167,29.6417,-93.6667,0037,14.67,3.12,15.0000,78.0000
1981-10-04 15:00:00 UTC,2444882.125000,29.6417,-93.6667,0037,15.65,3.33,16.0000,78.0000
1981-10-04 15:30:00 UTC,2444882.145833,29.6417,-93.6667,0037,15.71,3.05,16.0000,79.0000
1981-10-04 16:00:00 UTC,2444882.166667,29.6417,-93.6667,0037,15.91,1.67,16.0000,84.0000
1981-10-04 16:30:00 UTC,2444882.187500,29.6417,-93.6667,0037,16.00,0.00,16.0000,90.0000
1981-10-04 17:00:00 UTC,2444882.208333,29.6417,-93.6667,0037,15.98,-0.84,16.0000,93.0000
1981-10-04 17:30:00 UTC,2444882.229167,29.6417,-93.6667,0037,15.88,-1.95,16.0000,97.0000
1981-10-04 18:00:00 UTC,2444882.250000,29.6417,-93.6667,0037,16.63,-3.53,17.0000,102.0000
1981-10-04 18:30:00 UTC,2444882.270833,29.6417,-93.6667,0037,16.56,-3.82,17.0000,103.0000
1981-10-04 19:00:00 UTC,2444882.291667,29.6417,-93.6667,0037,16.56,-3.82,17.0000,103.0000
1981-10-04 19:30:00 UTC,2444882.312500,29.6417,-93.6667,0037,16.42,-4.40,17.0000,105.0000
1981-10-04 20:00:00 UTC,2444882.333333,29.6417,-93.6667,0037,15.04,-5.47,16.0000,110.0000
1981-10-04 20:30:00 UTC,2444882.354167,29.6417,-93.6667,0037,14.50,-6.76,16.0000,115.0000
1981-10-04 21:00:00 UTC,2444882.375000,29.6417,-93.6667,0037,13.86,-8.00,16.0000,120.0000
1981-10-04 21:30:00 UTC,2444882.395833,29.6417,-93.6667,0037,13.11,-9.18,16.0000,125.0000
1981-10-04 22:00:00 UTC,2444882.416667,29.6417,-93.6667,0037,12.61,-9.85,16.0000,128.0000
1981-10-04 22:30:00 UTC,2444882.437500,29.6417,-93.6667,0037,11.49,-9.64,15.0000,130.0000
1981-10-04 23:00:00 UTC,2444882.458333,29.6417,-93.6667,0037,11.49,-9.64,15.0000,130.0000
1981-10-04 23:30:00 UTC,2444882.479167,29.6417,-93.6667,0037,11.82,-9.23,15.0000,128.0000
1981-10-05 00:00:00 UTC,2444882.500000,29.6417,-93.6667,0037,11.66,-9.44,15.0000,129.0000
1981-10-05 00:30:00 UTC,2444882.520833,29.6417,-93.6667,0037,11.15,-10.04,15.0000,132.0000
1981-10-05 01:00:00 UTC,2444882.541667,29.6417,-93.6667,0037,10.24,-9.55,14.0000,133.0000
1981-10-05 01:30:00 UTC,2444882.562500,29.6417,-93.6667,0037,9.51,-8.87,13.0000,133.0000
1981-10-05 02:00:00 UTC,2444882.583333,29.6417,-93.6667,0037,7.55,-9.33,12.0000,141.0000
1981-10-05 02:30:00 UTC,2444882.604167,29.6417,-93.6667,0037,6.30,-11.37,13.0000,151.0000
1981-10-05 03:00:00 UTC,2444882.625000,29.6417,-93.6667,0037,5.90,-11.58,13.0000,153.0000
1981-10-05 03:30:00 UTC,2444882.645833,29.6417,-93.6667,0037,5.70,-11.68,13.0000,154.0000
1981-10-05 04:00:00 UTC,2444882.666667,29.6417,-93.6667,0037,4.87,-12.05,13.0000,158.0000
1981-10-05 04:30:00 UTC,2444882.687500,29.6417,-93.6667,0037,3.80,-12.43,13.0000,163.0000
1981-10-05 05:00:00 UTC,2444882.708333,29.6417,-93.6667,0037,2.26,-12.80,13.0000,170.0000
1981-10-05 05:30:00 UTC,2444882.729167,29.6417,-93.6667,0037,0.26,-15.00,15.0000,179.0000
1981-10-05 06:00:00 UTC,2444882.750000,29.6417,-93.6667,0037,-1.48,-16.94,17.0000,185.0000
1981-10-05 06:30:00 UTC,2444882.770833,29.6417,-93.6667,0037,-1.95,-15.88,16.0000,187.0000
1981-10-05 07:00:00 UTC,2444882.791667,29.6417,-93.6667,0037,-2.60,-14.77,15.0000,190.0000
1981-10-05 07:30:00 UTC,2444882.812500,29.6417,-93.6667,0037,-5.38,-14.00,15.0000,201.0000
1981-10-05 08:00:00 UTC,2444882.833333,29.6417,-93.6667,0037,-9.44,-11.66,15.0000,219.0000
1981-10-05 08:30:00 UTC,2444882.854167,29.6417,-93.6667,0037,-11.26,-6.50,13.0000,240.0000
1981-10-05 09:00:00 UTC,2444882.875000,29.6417,-93.6667,0037,-9.70,-2.42,10.0000,256.0000
1981-10-05 09:30:00 UTC,2444882.895833,29.6417,-93.6667,0037,-8.97,-0.78,9.0000,265.0000
1981-10-05 10:00:00 UTC,2444882.916667,29.6417,-93.6667,0037,-10.00,-0.17,10.0000,269.0000
1981-10-05 10:30:00 UTC,2444882.937500,29.6417,-93.6667,0037,-11.98,0.63,12.0000,273.0000
1981-10-05 11:00:00 UTC,2444882.958333,29.6417,-93.6667,0037,-11.91,1.46,12.0000,277.0000